Weather History for KHUT - February, 2012

Change the Weather History Date:

Saturday, February 11, 2012

  Actual Average Record
Temperature  
Mean Temperature 18 °F -  
Max Temperature 25 °F 44 °F 64 °F (1999)
Min Temperature 10 °F 22 °F 6 °F (2006)
Degree Days  
Heating Degree Days 48    
Moisture  
Dew Point 1 °F    
Average Humidity 53    
Maximum Humidity 77    
Minimum Humidity 37    
Precipitation  
Precipitation 0.00 in - - ()
Sea Level Pressure  
Sea Level Pressure 30.70 in    
Wind  
Wind Speed 11 mph (NNE)    
Max Wind Speed 22 mph    
Max Gust Speed 31 mph    
Visibility 10 miles    
Events      
Averages and records for this station are not official NWS values.
T = Trace of Precipitation, MM = Missing Value Source: NWS Daily Summary

Daily Weather History Graph

Daily Weather History Graph

Search for Another Location

Airport or City:

Trip Planner

Search our weather history database for the weather conditions in past years. The results will help you decide how hot, cold, wet, or windy it might be!

Date:

Astronomy

Feb. 11, 2012 Rise Set
Actual Time 7:26 AM CST 6:05 PM CST
Civil Twilight 6:59 AM CST 6:32 PM CST
Nautical Twilight 6:28 AM CST 7:03 PM CST
Astronomical Twilight 5:57 AM CST 7:34 PM CST
Moon 10:49 PM CST (2/11) 9:14 AM CST (2/11)
Length of Visible Light 11h 33m
Length of Day
10h 38m
Waning Gibbous, 82% of the Moon is Illuminated
Feb 11
Waning Gibbous
Feb 14
Last Quarter
Feb 21
New
Feb 29
First Quarter
Mar 8
Full

Hourly Weather History & Observations

Time (CST) Temp. Windchill Dew Point Humidity Pressure Visibility Wind Dir Wind Speed Gust Speed Precip Events Conditions
12:52 AM 14.0 °F -1.4 °F 1.0 °F 56% 30.56 in 10.0 mi NNE 15.0 mph 24.2 mph N/A   Clear
1:52 AM 12.9 °F -5.7 °F -0.9 °F 54% 30.58 in 10.0 mi North 21.9 mph 31.1 mph N/A   Mostly Cloudy
2:52 AM 10.9 °F -4.1 °F -0.9 °F 59% 30.63 in 10.0 mi NNE 12.7 mph 23.0 mph N/A   Overcast
3:52 AM 10.0 °F -5.2 °F -2.0 °F 58% 30.65 in 10.0 mi NNE 12.7 mph 21.9 mph N/A   Overcast
4:52 AM 10.0 °F -1.9 °F -2.0 °F 58% 30.70 in 10.0 mi North 8.1 mph - N/A   Overcast
5:52 AM 10.0 °F -3.7 °F -2.9 °F 56% 30.73 in 10.0 mi North 10.4 mph - N/A   Overcast
6:52 AM 10.0 °F -7.6 °F -2.0 °F 58% 30.75 in 10.0 mi NNW 17.3 mph 20.7 mph N/A   Overcast
7:52 AM 10.0 °F -5.9 °F -2.9 °F 56% 30.76 in 10.0 mi North 13.8 mph - N/A   Overcast
8:52 AM 10.9 °F -3.4 °F -2.0 °F 56% 30.79 in 10.0 mi NNE 11.5 mph - N/A   Overcast
9:52 AM 14.0 °F 1.2 °F -2.0 °F 49% 30.79 in 10.0 mi North 10.4 mph 19.6 mph N/A   Clear
10:52 AM 17.1 °F 5.0 °F -2.0 °F 43% 30.80 in 10.0 mi North 10.4 mph 19.6 mph N/A   Clear
11:52 AM 19.0 °F 8.2 °F -0.9 °F 42% 30.79 in 10.0 mi NNE 9.2 mph - N/A   Clear
12:52 PM 21.0 °F 14.6 °F -0.0 °F 40% 30.77 in 10.0 mi NNE 4.6 mph - N/A   Clear
1:52 PM 23.0 °F 17.0 °F 1.0 °F 39% 30.74 in 10.0 mi NE 4.6 mph - N/A   Clear
2:52 PM 24.1 °F 14.4 °F 1.9 °F 38% 30.72 in 10.0 mi ENE 9.2 mph - N/A   Clear
3:52 PM 25.0 °F 16.3 °F 1.9 °F 37% 30.69 in 10.0 mi East 8.1 mph - N/A   Clear
4:52 PM 25.0 °F 17.1 °F 3.0 °F 39% 30.67 in 10.0 mi ENE 6.9 mph - N/A   Clear
5:52 PM 23.0 °F 14.7 °F 3.0 °F 42% 30.67 in 10.0 mi ENE 6.9 mph - N/A   Clear
6:52 PM 19.0 °F - 3.0 °F 50% 30.69 in 10.0 mi Calm Calm - N/A   Clear
7:52 PM 15.1 °F 9.4 °F 3.9 °F 61% 30.70 in 10.0 mi ENE 3.5 mph - N/A   Clear
8:52 PM 14.0 °F - 5.0 °F 67% 30.72 in 10.0 mi Calm Calm - N/A   Clear
9:52 PM 10.9 °F - 5.0 °F 77% 30.71 in 10.0 mi Calm Calm - N/A   Clear
10:52 PM 12.0 °F - 5.0 °F 73% 30.69 in 10.0 mi Calm Calm - N/A   Clear
11:52 PM 14.0 °F 8.2 °F 6.1 °F 71% 30.67 in 10.0 mi ENE 3.5 mph - N/A   Clear